WMT843 LRCL-LGIR

Flight info

Callsign WMT843
Flight time N/A
Altitude 39000
Route ELROM DCT BUKAN DCT NEPOT DCT LOMOS DCT NIKTI DCT KOROS/N0434F380 DCT NEVRA/N0434F390 UT514 GIVIS T514 XAVIS
Aircraft A20N/M-SDE1E2E3FGIJ1J4RWXY/LB1

Departure

Time 2026-04-29 14:29
Airport Avram Iancu Cluj International Airport (LRCL)

Arrival

Time N/A
Airport Heraklion International Nikos Kazantzakis Airport (LGIR)
Time Latitude Longitude Altitude Speed Heading
2026-04-29 14:13 46.78492 23.69274 1023 ft 0 kts 252°
2026-04-29 14:20 46.78495 23.69289 1024 ft 2 kts 252°
2026-04-29 14:20 46.78500 23.69310 1024 ft 2 kts 252°
2026-04-29 14:20 46.78505 23.69331 1024 ft 2 kts 251°
2026-04-29 14:21 46.78503 23.69350 1024 ft 2 kts 309°
2026-04-29 14:21 46.78496 23.69359 1024 ft 0 kts 340°
2026-04-29 14:21 46.78489 23.69362 1024 ft 0 kts 343°
2026-04-29 14:21 46.78488 23.69362 1024 ft 0 kts 343°
2026-04-29 14:24 46.78495 23.69359 1024 ft 2 kts 342°
2026-04-29 14:24 46.78521 23.69346 1023 ft 5 kts 341°
2026-04-29 14:24 46.78574 23.69321 1022 ft 9 kts 342°
2026-04-29 14:25 46.78645 23.69287 1021 ft 11 kts 343°
2026-04-29 14:25 46.78714 23.69254 1022 ft 8 kts 341°
2026-04-29 14:25 46.78760 23.69231 1021 ft 0 kts 341°
2026-04-29 14:25 46.78767 23.69228 1021 ft 2 kts 341°
2026-04-29 14:26 46.78800 23.69212 1021 ft 7 kts 342°
2026-04-29 14:26 46.78868 23.69179 1020 ft 11 kts 349°
2026-04-29 14:26 46.78930 23.69246 1020 ft 13 kts 73°
2026-04-29 14:26 46.78962 23.69392 1020 ft 16 kts 71°
2026-04-29 14:27 46.78986 23.69542 1019 ft 12 kts 89°
2026-04-29 14:27 46.79002 23.69629 1018 ft 5 kts 51°
2026-04-29 14:27 46.79014 23.69628 1018 ft 0 kts 315°
2026-04-29 14:28 46.79013 23.69619 1018 ft 0 kts 253°
2026-04-29 14:28 46.79013 23.69618 1018 ft 1 kts 253°
2026-04-29 14:28 46.78951 23.69339 1020 ft 70 kts 252°
2026-04-29 14:29 46.78716 23.68297 1028 ft 142 kts 254°
2026-04-29 14:29 46.78377 23.66799 1513 ft 161 kts 255°
2026-04-29 14:29 46.78032 23.65285 2350 ft 161 kts 256°
2026-04-29 14:29 46.77677 23.63699 2977 ft 173 kts 257°
2026-04-29 14:30 46.77291 23.61969 3537 ft 190 kts 257°
2026-04-29 14:30 46.76873 23.60086 4086 ft 208 kts 256°
2026-04-29 14:30 46.76397 23.57950 4606 ft 232 kts 255°
2026-04-29 14:30 46.75893 23.55646 5248 ft 249 kts 258°
2026-04-29 14:31 46.75561 23.53102 5965 ft 263 kts 266°
2026-04-29 14:31 46.75447 23.50467 6929 ft 267 kts 270°
2026-04-29 14:31 46.75378 23.47763 8032 ft 268 kts 270°
2026-04-29 14:31 46.75315 23.45079 9060 ft 269 kts 270°
2026-04-29 14:32 46.75252 23.42388 10048 ft 270 kts 270°
2026-04-29 14:32 46.75185 23.39654 10904 ft 276 kts 270°
2026-04-29 14:32 46.75113 23.36849 11622 ft 285 kts 270°
2026-04-29 14:32 46.75037 23.33970 12533 ft 288 kts 269°
2026-04-29 14:33 46.74960 23.31059 13442 ft 291 kts 269°
2026-04-29 14:33 46.74882 23.28120 14317 ft 294 kts 270°
2026-04-29 14:33 46.74676 23.25154 15215 ft 299 kts 257°
2026-04-29 14:33 46.73635 23.22557 16048 ft 312 kts 230°
2026-04-29 14:34 46.71818 23.20736 16911 ft 326 kts 208°
2026-04-29 14:34 46.69578 23.19990 17672 ft 340 kts 192°
2026-04-29 14:34 46.67204 23.19680 18400 ft 345 kts 192°
2026-04-29 14:34 46.64814 23.19356 19091 ft 349 kts 193°
2026-04-29 14:35 46.62389 23.19007 19812 ft 352 kts 193°
2026-04-29 14:35 46.59970 23.18650 20550 ft 354 kts 194°
2026-04-29 14:35 46.57503 23.18275 21242 ft 358 kts 194°
2026-04-29 14:35 46.55033 23.17894 21933 ft 361 kts 195°
2026-04-29 14:36 46.52531 23.17508 22610 ft 364 kts 195°
2026-04-29 14:36 46.50016 23.17117 23285 ft 367 kts 195°
2026-04-29 14:36 46.47501 23.16727 23927 ft 370 kts 195°
2026-04-29 14:36 46.44920 23.16328 24569 ft 373 kts 196°
2026-04-29 14:37 46.42358 23.15931 25165 ft 376 kts 196°
2026-04-29 14:37 46.39749 23.15522 25719 ft 381 kts 196°
2026-04-29 14:37 46.37119 23.15114 26262 ft 385 kts 196°
2026-04-29 14:37 46.34437 23.14700 26807 ft 389 kts 197°
2026-04-29 14:38 46.31737 23.14282 27345 ft 392 kts 197°
2026-04-29 14:38 46.29015 23.13861 27878 ft 395 kts 197°
2026-04-29 14:38 46.26293 23.13443 28357 ft 399 kts 197°
2026-04-29 14:38 46.23540 23.13018 28776 ft 403 kts 197°
2026-04-29 14:39 46.20717 23.12583 29231 ft 407 kts 197°
2026-04-29 14:39 46.17902 23.12148 29646 ft 410 kts 198°
2026-04-29 14:39 46.15078 23.11716 30077 ft 413 kts 198°
2026-04-29 14:39 46.12235 23.11280 30498 ft 415 kts 198°
2026-04-29 14:40 46.09362 23.10842 30872 ft 419 kts 198°
2026-04-29 14:40 46.06442 23.10395 31211 ft 422 kts 198°
2026-04-29 14:40 46.03520 23.09942 31516 ft 425 kts 198°
2026-04-29 14:40 46.00588 23.09492 31856 ft 427 kts 198°
2026-04-29 14:41 45.97589 23.09108 32158 ft 434 kts 194°
2026-04-29 14:41 45.94579 23.08974 32480 ft 442 kts 191°
2026-04-29 14:41 45.91500 23.09118 32998 ft 442 kts 187°
2026-04-29 14:41 45.88440 23.09371 33531 ft 438 kts 187°
2026-04-29 14:42 45.85451 23.09618 33978 ft 435 kts 187°
2026-04-29 14:42 45.82430 23.09862 34358 ft 434 kts 187°
2026-04-29 14:42 45.79439 23.10101 34671 ft 434 kts 187°
2026-04-29 14:42 45.76423 23.10340 34956 ft 434 kts 186°
2026-04-29 14:43 45.73400 23.10576 35257 ft 434 kts 186°
2026-04-29 14:43 45.70421 23.10811 35549 ft 433 kts 186°
2026-04-29 14:43 45.67394 23.11046 35818 ft 433 kts 186°
2026-04-29 14:43 45.64412 23.11278 36044 ft 434 kts 186°
2026-04-29 14:44 45.61399 23.11510 36245 ft 436 kts 186°
2026-04-29 14:44 45.58373 23.11746 36458 ft 438 kts 186°
2026-04-29 14:44 45.55306 23.11986 36371 ft 438 kts 186°
2026-04-29 14:44 45.52294 23.12220 36630 ft 439 kts 185°
2026-04-29 14:45 45.49225 23.12459 36871 ft 440 kts 185°
2026-04-29 14:45 45.46170 23.12696 37079 ft 441 kts 185°
2026-04-29 14:45 45.43109 23.12936 37087 ft 442 kts 185°
2026-04-29 14:46 45.36993 23.13414 37083 ft 441 kts 185°
2026-04-29 14:46 45.30868 23.13888 37100 ft 441 kts 185°
2026-04-29 14:47 45.24778 23.14361 37097 ft 441 kts 185°
2026-04-29 14:47 45.18641 23.14832 37099 ft 441 kts 185°
2026-04-29 14:48 45.12569 23.15299 37093 ft 440 kts 185°
2026-04-29 14:48 45.06447 23.15766 37107 ft 441 kts 185°
2026-04-29 14:49 45.00336 23.16234 37137 ft 441 kts 185°
2026-04-29 14:49 44.94234 23.16701 37119 ft 439 kts 185°
2026-04-29 14:50 44.88150 23.17162 37117 ft 439 kts 185°
2026-04-29 14:50 44.82055 23.17623 37116 ft 439 kts 185°
2026-04-29 14:51 44.76011 23.18082 37105 ft 438 kts 185°
2026-04-29 14:51 44.69899 23.18544 37106 ft 439 kts 185°
2026-04-29 14:52 44.63823 23.19002 37094 ft 439 kts 185°
2026-04-29 14:52 44.57737 23.19462 37127 ft 439 kts 185°
2026-04-29 14:53 44.51659 23.19916 37094 ft 439 kts 185°
2026-04-29 14:53 44.45562 23.20375 37074 ft 439 kts 185°
2026-04-29 14:54 44.39481 23.20829 37075 ft 439 kts 185°
2026-04-29 14:54 44.33410 23.21283 37093 ft 439 kts 185°
2026-04-29 14:55 44.27319 23.21737 37081 ft 439 kts 185°
2026-04-29 14:55 44.21239 23.22190 37083 ft 439 kts 185°
2026-04-29 14:56 44.15155 23.22642 37074 ft 438 kts 185°
2026-04-29 14:56 44.09053 23.23093 37097 ft 439 kts 185°
2026-04-29 14:57 44.02972 23.23543 37064 ft 439 kts 185°
2026-04-29 14:57 43.96906 23.23991 37064 ft 439 kts 185°
2026-04-29 14:58 43.90801 23.24440 37064 ft 439 kts 185°
2026-04-29 14:58 43.84712 23.25111 37049 ft 444 kts 179°
2026-04-29 14:59 43.78650 23.26793 37057 ft 451 kts 171°
2026-04-29 14:59 43.72608 23.29186 37050 ft 452 kts 171°
2026-04-29 15:00 43.66602 23.31576 37063 ft 452 kts 171°
2026-04-29 15:00 43.60554 23.33963 37064 ft 451 kts 171°
2026-04-29 15:01 43.54516 23.36337 37058 ft 451 kts 171°
2026-04-29 15:01 43.48508 23.38690 37068 ft 451 kts 170°
2026-04-29 15:02 43.42479 23.41047 37065 ft 451 kts 170°
2026-04-29 15:02 43.36451 23.43400 37057 ft 451 kts 171°
2026-04-29 15:03 43.30464 23.45730 37066 ft 450 kts 170°
2026-04-29 15:03 43.24408 23.48082 37063 ft 451 kts 170°
2026-04-29 15:04 43.18413 23.50407 37068 ft 451 kts 170°
2026-04-29 15:04 43.12374 23.52746 37069 ft 450 kts 170°
2026-04-29 15:05 43.06374 23.55063 37072 ft 450 kts 170°
2026-04-29 15:05 43.00369 23.57375 37073 ft 450 kts 170°
2026-04-29 15:06 42.94352 23.59689 37073 ft 450 kts 170°
2026-04-29 15:06 42.88325 23.62002 37070 ft 450 kts 170°
2026-04-29 15:07 42.82295 23.64311 37074 ft 450 kts 170°
2026-04-29 15:07 42.76284 23.66612 37078 ft 449 kts 171°
2026-04-29 15:08 42.70284 23.68900 37076 ft 449 kts 171°
2026-04-29 15:08 42.64262 23.71191 37072 ft 449 kts 171°
2026-04-29 15:09 42.58286 23.73462 37072 ft 449 kts 170°
2026-04-29 15:09 42.52283 23.75738 37071 ft 449 kts 170°
2026-04-29 15:10 42.46266 23.78016 37074 ft 449 kts 170°
2026-04-29 15:10 42.40256 23.80286 37075 ft 449 kts 170°
2026-04-29 15:11 42.34274 23.82541 37076 ft 448 kts 170°
2026-04-29 15:11 42.28282 23.84793 37079 ft 449 kts 170°
2026-04-29 15:12 42.22278 23.87050 37075 ft 448 kts 170°
2026-04-29 15:12 42.16272 23.89298 37079 ft 448 kts 170°
2026-04-29 15:13 42.10230 23.91557 37084 ft 449 kts 170°
2026-04-29 15:13 42.04237 23.93796 37078 ft 449 kts 170°
2026-04-29 15:14 41.98213 23.96041 37084 ft 449 kts 170°